Location: Pedimozza
(42.0500°N, 9.3500°E)
Time: 13:25:02
(UTC+00:00)

SPOT 5 - Pass Details

Date: 19 August 2019
Orbit: 623 x 815 km, 98.3° (Epoch: 23 September)

Event Time Altitude Azimuth Distance (km) Brightness Sun altitude
Exits shadow 20:02:10 19° 72° (ENE) 1,479 4.2 -18.0°
Maximum altitude 20:02:30 20° 65° (ENE) 1,471 4.2 -18.0°
Drops below altitude 10° 20:05:36 10° 19° (NNE) 2,003 5.4 -18.5°
Sets 20:08:16 0° 2° (N) 2,920 6.5 -18.9°
